TIME,DELAY(SENSOR),PRES,OXYGEN,RAWTEMP,T(OPTODE),TCPHASE,FLUOR,BETA(BETA700),BETA(BETA412),BETA(BETA440),CDOM,C(CSC),ED(ED412.40),ED(ED444.00),ED(ED489.70),ED(ED554.30),LU(LU411.80),LU(LU443.40),LU(LU489.60),LU(LU554.10),COMP,TILTX,TILTY,CHECK
1372480033,5806,835.2399902343750000,47.0861206054687500,663.7863159179688000,4.5032410621643070,53.9996681213378900,53,100,86,79,80,15474,2147752758,2147422701,2148009664,2147876416,2147639259,2147054116,2148258980,2147194825,777,4,13,8046
1372483629,5808,891.2999877929688000,49.1930198669433600,670.9984130859375000,4.2652130126953125,53.7908515930175800,52,100,87,79,80,15476,2147753097,2147422308,2148011931,2147876955,2147637668,2147054491,2148264000,2147196050,3481,4,13,14947
1372487229,5809,916.8099975585938000,51.7369194030761700,673.0114135742188000,4.1986689567565920,53.4723587036132800,52,98,84,78,79,15479,2147757540,2147421860,2148011172,2147874861,2147640704,2147049874,2148259529,2147198674,106,4,13,19681
1372490829,5809,942.6400146484375000,55.0667800903320300,674.9760131835938000,4.1336798667907715,53.0513305664062500,52,98,87,79,78,15478,2147753261,2147423734,2148014528,2147877769,2147642075,2147056256,2148261348,2147202066,221,4,13,26533
1372494429,5808,952.7899780273438000,55.0138893127441400,674.7965698242188000,4.1396179199218750,53.0535697937011700,52,96,84,79,80,15475,2147754678,2147424054,2148012772,2147875172,2147641078,2147053485,2148257334,2147198144,285,4,13,9032
1372498029,5808,960.5100097656250000,54.6430511474609400,674.6364746093750000,4.1449131965637210,53.1012992858886700,52,98,86,79,79,15479,2147754761,2147424640,2148011584,2147874240,2147642578,2147054710,2148260461,2147196754,90,4,13,27832
1372501629,5810,993.7000122070312000,55.0250205993652340,674.8538208007812000,4.1377258300781250,53.0519599914550800,53,102,85,79,78,15476,2147754276,2147423579,2148010578,2147873197,2147641005,2147053732,2148260580,2147197860,340,4,13,51404
1372505229,5807,991.0100097656250000,54.7323188781738300,674.9703979492188000,4.1338648796081540,53.0909690856933600,53,96,85,78,79,15477,2147754934,2147423433,2148008722,2147876452,2147642029,2147054125,2148257572,2147196909,3537,4,13,46054
1372508829,5808,981.7899780273438000,55.2696990966796900,675.9105834960938000,4.1027488708496090,53.0383300781250000,52,97,86,78,80,15475,2147756077,2147424996,2148011044,2147874834,2147643181,2147050166,2148261604,2147199369,966,4,13,38325
1372512429,5809,992.0900268554688000,56.0775413513183600,676.7855224609375000,4.0737857818603520,52.9429092407226560,53,98,89,78,80,15476,2147757174,2147425408,2148010971,2147876150,2147641974,2147051273,2148262290,2147197257,48,4,13,51544
1372516029,5808,986.9699707031250000,55.4444313049316400,676.7861938476562000,4.0737609863281250,53.0230598449707000,53,97,86,79,79,15478,2147757110,2147425801,2148010240,2147873042,2147642386,2147053412,2148266980,2147196992,43,4,13,25240
1372519629,5806,982.9099731445312000,55.5668907165527340,677.5233154296875000,4.0493531227111820,53.0187797546386700,53,96,84,79,79,15475,2147756306,2147423579,2148010194,2147878966,2147644425,2147053184,2148263698,2147196992,9,4,13,17369
1372523229,5807,979.9400024414062000,55.7074012756347660,678.3281250000000000,4.0226941108703610,53.0122489929199200,52,96,85,79,79,15472,2147758043,2147425773,2148011456,2147874925,2147641819,2147052809,2148260836,2147198829,607,3,13,61453
1372526829,5807,983.9000244140625000,55.8683280944824200,678.5571899414062000,4.0151019096374510,52.9942703247070300,52,96,88,78,79,15467,2147756854,2147425334,2148013549,2147877394,2147642505,2147053860,2148263917,2147196772,232,4,13,26
1372530429,5806,972.7399902343750000,56.1517982482910160,679.2932128906250000,3.9907150268554688,52.9618797302246100,52,98,86,78,79,15471,2147756333,2147425764,2148014180,2147875867,2147642496,2147056493,2148261924,2147198290,643,4,13,43440
1372534029,5811,987.1199951171875000,56.7668418884277340,681.1558837890625000,3.9289650917053223,52.9117088317871100,52,97,88,80,79,15469,2147758765,2147424731,2148010377,2147877778,2147643072,2147049618,2148261686,2147198601,3273,4,13,3333
1372537629,5808,991.0800170898438000,56.0899696350097660,678.4761962890625000,4.0177879333496090,52.9619407653808600,52,97,87,78,80,15474,2147758244,2147426550,2148011739,2147875200,2147641024,2147054701,2148261531,2147198454,44,4,13,45814
1372541229,5806,994.4400024414062000,55.8696708679199200,678.3513793945312000,4.0219211578369140,52.9881210327148440,52,99,84,79,80,15472,2147754340,2147424731,2148010340,2147877796,2147641435,2147058861,2148263113,2147195154,51,4,13,57016
1372544829,5807,988.6300048828125000,55.4710884094238300,678.7277832031250000,4.0094528198242190,53.0498695373535160,52,97,88,78,80,15474,2147752923,2147423972,2148011529,2147876059,2147642459,2147053266,2148261110,2147197046,3521,4,13,8206
1372548429,5808,990.7100219726562000,55.3887901306152340,677.0175781250000000,4.0660991668701170,53.0340995788574200,52,111,85,79,80,15472,2147756269,2147425124,2148011675,2147877769,2147642605,2147056832,2148262921,2147198125,760,4,13,48176
1372552029,5807,989.6799926757812000,55.4794998168945300,677.4805297851562000,4.0507698059082030,53.0315208435058600,53,98,87,78,79,15472,2147756178,2147423753,2148012278,2147876105,2147642523,2147054336,2148263817,2147197476,2541,4,13,33667
1372555629,5808,998.3699951171875000,55.8365097045898440,677.5037231445312000,4.0500030517578125,52.9847908020019500,53,99,86,78,79,15473,2147752192,2147426258,2148009901,2147876644,2147642624,2147052763,2148264804,2147200996,3194,4,13,4042
1372559229,5809,998.7199707031250000,55.8882217407226560,677.2268066406250000,4.0591721534729000,52.9731101989746100,53,97,86,79,79,15472,2147761472,2147424813,2148008320,2147873682,2147639305,2147054390,2148261805,2147199780,2540,3,13,43705
1372562829,5808,1004.2899780273438000,55.8839416503906250,676.7141113281250000,4.0761508941650390,52.9653511047363300,52,96,87,78,79,15473,2147755053,2147425161,2148010733,2147876461,2147643968,2147056932,2148257261,2147200219,2882,3,13,11167
1372566429,5810,1002.4500122070312000,55.1865310668945300,676.2572021484375000,4.0912761688232420,53.0528297424316400,52,95,87,78,79,15472,2147755446,2147423661,2148011200,2147874404,2147641344,2147051648,2148261056,2147198464,3430,4,13,60178
1372570029,5804,1002.0700073242188000,54.8450202941894500,676.2125854492188000,4.0927519798278810,53.0977210998535160,51,95,85,77,79,15471,2147754441,2147425563,2148012534,2147872402,2147639570,2147056018,2148260361,2147197997,3556,4,13,37709
1372573629,5809,993.4000244140625000,55.3171005249023440,676.9990234375000000,4.0667147636413570,53.0442199707031250,52,99,83,79,78,15472,2147755264,2147427419,2148013924,2147873810,2147639698,2147054857,2148260937,2147196699,383,4,13,47830
1372577229,5811,993.0800170898438000,55.7044906616210940,678.5706176757812000,4.0146598815917970,53.0123291015625000,52,98,88,77,79,15470,2147760192,2147425280,2148013595,2147873691,2147644937,2147058861,2148260196,2147195062,3245,4,13,61273
1372580829,5809,987.4199829101562000,55.4858894348144500,679.0723876953125000,3.9980340003967285,53.0506286621093750,52,98,86,78,78,15473,2147754550,2147423140,2148013275,2147874788,2147643291,2147047881,2148266240,2147198985,3275,4,13,47525
1372584429,5811,990.4199829101562000,55.7721710205078100,679.1785278320312000,3.9945139884948730,53.0109291076660160,52,98,85,81,80,15470,2147755062,2147422756,2148009883,2147871488,2147642157,2147053513,2148264612,2147198281,26,4,13,36536
1372588029,5807,995.2800292968750000,55.2565383911132800,678.1956176757812000,4.0270819664001465,53.0649185180664060,52,106,84,79,80,15459,2147757814,2147424530,2148011501,2147874130,2147641563,2147057334,2148260598,2147199451,371,4,13,19968
1372591629,5805,998.8599853515625000,55.4559898376464840,677.1212158203125000,4.0626678466796875,53.0303001403808600,51,98,85,79,79,15460,2147757833,2147426587,2148013330,2147875940,2147642450,2147050907,2148259090,2147195081,3566,4,13,17991
1372595229,5809,1001.3099975585938000,55.0551300048828100,676.1256713867188000,4.0956292152404785,53.0643081665039060,53,101,88,79,78,15461,2147758016,2147424000,2148015286,2147876105,2147642852,2147050624,2148256128,2147199442,248,4,13,61278
1372598829,5805,989.7600097656250000,55.5198287963867200,677.6309204101562000,4.0457901954650880,53.0249214172363300,53,98,84,77,79,15463,2147756086,2147426185,2148011529,2147874816,2147639232,2147049718,2148264448,2147200493,107,4,13,53731
1372602429,5809,993.5599975585938000,55.6750717163085940,679.5438232421875000,3.9824120998382570,53.0286407470703100,53,97,85,77,79,15461,2147759817,2147424283,2148011574,2147871250,2147640886,2147053074,2148261860,2147199981,185,4,13,24129
1372606029,5808,989.7899780273438000,55.4420585632324200,678.8479003906250000,4.0054721832275390,53.0507583618164060,52,97,85,78,80,15461,2147758080,2147424201,2148011776,2147873280,2147641654,2147052864,2148260909,2147194633,285,4,13,61917
1372609629,5808,990.7199707031250000,55.6744194030761700,678.9326782226562000,4.0026631355285645,53.0254898071289060,52,97,87,78,80,15461,2147756278,2147425846,2148014253,2147874249,2147642249,2147050194,2148265920,2147197092,469,4,13,21082
1372613229,5806,995.9600219726562000,55.6782112121582000,679.8087768554688000,3.9736249446868896,53.0322914123535160,52,97,86,78,79,15460,2147757046,2147424731,2148014363,2147877897,2147643081,2147048384,2148266752,2147195062,474,4,13,37357
1372616829,5808,989.4899902343750000,55.8720817565918000,680.5264892578125000,3.9498369693756104,53.0162506103515600,53,97,84,79,79,15460,2147753865,2147428708,2148014573,2147875273,2147641353,2147057316,2148260562,2147194358,3420,3,13,49215
1372620429,5810,993.6699829101562000,55.9634590148925800,680.0883789062500000,3.9643568992614746,52.9997901916503900,52,97,87,78,80,15450,2147756498,2147426889,2148013641,2147874011,2147644800,2147054363,2148258669,2147199021,3515,4,13,42063
1372623055,5808,991.3499755859375000,55.3347816467285160,680.1638183593750000,3.9618608951568604,53.0819892883300800,52,97,85,77,80,15463,2147758985,2147425837,2148014637,2147874916,2147642596,2147051739,2148263469,2147197257,191,3,13,58004
